Regional Weather Roundup
Issued by NWS

Home | Current Version | Previous Version | Graphics & Text | Print | Product List | Glossary On
Versions: 1 2 3 4 5 6 7 8 9 10 11 12 13 14 15 16 17 18 19 20 21 22 23 24 25 26 27 28 29 30 31 32 33 34 35 36 37 38 39 40 41 42 43 44 45 46 47 48 49 50
093
ASUS43 KMPX 232310
RWRMN
WEATHER ROUNDUP FOR MINNESOTA
NATIONAL WEATHER SERVICE TWIN CITIES/CHANHASSEN MN
600 PM CDT SAT JUL 23 2016


NOTE: "FAIR" INDICATES FEW OR NO CLOUDS BELOW 12,000 FEET WITH NO
SIGNIFICANT WEATHER AND/OR OBSTRUCTIONS TO VISIBILITY. N/A MEANS
CURRENT SKY AND/OR WEATHER CONDITIONS ARE NOT AVAILABLE.

MNZ060>063-068>070-240000-
   Twin Cities Metro

CITY           SKY/WX    TMP DP  RH WIND       PRES   REMARKS
TWIN CITIES    CLOUDY    74  70  87 E13       29.83F
ST PAUL        CLOUDY    73  70  90 SE8       29.84F
CRYSTAL        CLOUDY    74  68  81 SE8       29.81F
BLAINE         MOSUNNY   75  73  94 SE12      29.82F
LAKEVILLE      CLOUDY    75  75 100 E5        29.84F
EDEN PRAIRIE   CLOUDY    75  70  84 E10       29.82F
LAKEVILLE      CLOUDY    75  75 100 E5        29.84F
SOUTH ST PAUL  CLOUDY    72  70  96 E3        29.84F
LAKE ELMO      FAIR      72  70  94 SE5       29.86F
$$
MNZ001>005-007-008-013>017-022>024-027-028-240000-
   Northwest Minnesota

CITY           SKY/WX    TMP DP  RH WIND       PRES   REMARKS
BEMIDJI        SUNNY     77  68  73 SE8       29.77S
HALLOCK        CLOUDY    75  70  83 SW8       29.72F
ROSEAU         CLOUDY    73  66  78 S5        29.72F
WARROAD        CLOUDY    75  72  88 SE8       29.73F
THIEF RVR FALL RAIN      70  69  97 NW3       29.74F
CROOKSTON      MOSUNNY   77  72  83 NE3       29.73F
FOSSTON        CLOUDY    75  66  73 S6        29.76S
DETROIT LAKES  CLOUDY    77  70  78 S9        29.77R
MOORHEAD       MOSUNNY   82  72  69 S10       29.71S
PARK RAPIDS    MOSUNNY   79  68  69 S13       29.77S
MAHNOMEN       CLOUDY    77  69  77 S5        29.75R
$$
MNZ006-009>011-018-025>026-240000-
   North Central Minnesota

CITY           SKY/WX    TMP DP  RH WIND       PRES   REMARKS
BAUDETTE       PTSUNNY   76  70  82 S6        29.74F
FLAG ISLAND    CLOUDY    70  66  88 E10G16    29.72F
INTL FALLS     CLOUDY    76  64  66 SE13      29.77F
WASKISH        MOSUNNY   81  70  69 SE9       29.77R
BIG FORK       CLOUDY    79  66  65 SE8       29.80F
LONGVILLE      MOSUNNY   81  66  61 SE8G16    29.78S
GRAND RAPIDS   CLOUDY    75  67  76 SE12      29.85S
ORR            CLOUDY    72  61  68 CALM      29.82F
COOK           CLOUDY    73  64  73 SE5       29.87S
WALKER         FAIR      75  68  78 E5        29.78S
$$
MNZ012-019>021-037-240000-
   Northeast Minnesota

CITY           SKY/WX    TMP DP  RH WIND       PRES   REMARKS
DULUTH         PTSUNNY   70  63  78 E10       29.87F
ELY            CLOUDY    75  61  60 SE10G16   29.88F
HIBBING        CLOUDY    71  66  84 S7        29.85F
EVELETH        CLOUDY    73  65  76 S7        29.88S
DULUTH HARBOR  CLOUDY    64  61  88 NE16      29.86F
TWO HARBORS    CLOUDY    73  64  73 NE7       29.85F
SILVER BAY     CLOUDY    70  63  78 NE6       29.87F
GRAND MARAIS     N/A     62  56  80 NE12      29.89F
G MARAIS ARPRT CLOUDY    70  57  64 E8        29.95S
$$
MNZ029>031-032-039>041-046>048-054>057-064-240000-
   West Central Minnesota

CITY           SKY/WX    TMP DP  RH WIND       PRES   REMARKS
FERGUS FALLS   MOSUNNY   81  72  74 S12       29.73F
WHEATON        SUNNY     82  75  78 SE16G23   29.73F
MORRIS         MOSUNNY   81  73  78 SE14G21   29.74S
ALEXANDRIA     SUNNY     79  71  76 SE17G23   29.78F
ELBOW LAKE     FAIR      79  72  80 E14G21    29.74F
WADENA         SUNNY     79  70  73 S12       29.76R
GLENWOOD       SUNNY     81  72  74 SE14G21   29.78S
APPLETON       SUNNY     82  73  74 SE12      29.73S
BENSON         PTSUNNY   81  72  74 SE9G18    29.75S
ORTONVILLE     MOSUNNY   82  75  78 SE7G16    29.73S
MADISON        SUNNY     82  77  83 SE13      29.73S HX  91
WILLMAR        CLOUDY    81  73  78 SE15      29.78S
$$
MNZ033>034-036-042>043-049>051-058-059-240000-
   Central Minnesota

CITY           SKY/WX    TMP DP  RH WIND       PRES   REMARKS
ST CLOUD       MOSUNNY   76  71  85 SE13      29.80F
SAUK CENTRE    FAIR      78  71  80 SE15G22   29.78F
PAYNESVILLE    MOSUNNY   77  73  86 SE14      29.79F
AITKIN         MOSUNNY   77  66  69 SE9       29.81F
PINE RIVER     MOSUNNY   79  70  73 SE12G17   29.82R
BRAINERD       MOSUNNY   75  68  78 SE14G20   29.80S
STAPLES        SUNNY     79  66  65 SE9       29.78R
LONG PRAIRIE   FAIR      77  70  78 E14G20    29.78F
LITTLE FALLS   MOSUNNY   77  68  73 SE13      29.79F
LITCHFIELD     PTSUNNY   79  75  89 SE14      29.80S
BUFFALO        MOSUNNY   76  69  77 E10       29.82F
MAPLE LAKE     MOSUNNY   77  72  86 SE5       29.82F
HUTCHINSON     CLOUDY    79  75  86 E13G20    29.80F
$$
MNZ037-044-045-052-053-240000-
   East Central Minnesota

CITY           SKY/WX    TMP DP  RH WIND       PRES   REMARKS
PRINCETON      CLOUDY    79  72  78 SE7       29.82S
MORA           CLOUDY    70  64  83 SE6       29.84F
CAMBRIDGE      PTSUNNY   73  66  78 S7        29.81S
RUSH CITY      CLOUDY    72  68  86 SE7       29.84S
MOOSE LAKE     MOSUNNY   73  64  73 S8        29.83F
HINCKLEY       FAIR      72  68  88 S6        29.84F
CLOQUET        CLOUDY    70  63  78 E6        29.87S
MCGREGOR       PTSUNNY   73  68  83 SE12      29.83F
$$
MNZ071>073-080-081-089-090-097-098-240000-
   Southwest Minnesota

CITY           SKY/WX    TMP DP  RH WIND       PRES   REMARKS
MONTEVIDEO     SUNNY     84  77  79 S15G21    29.75S HX  94
GRANITE FALLS  MOSUNNY   87  78  74 E12G21    29.75S HX  99
CANBY          SUNNY     89  75  62 S6        29.73F HX  99
MARSHALL       MOSUNNY   87  79  76 SE13      29.74F HX 101
REDWOOD FALLS  PTSUNNY   83  76  79 E10       29.75F HX  91
OLIVIA         PTSUNNY   79  73  83 E15       29.76F
PIPESTONE      MOSUNNY   88  77  70 S10       29.77F HX 100
WINDOM         SUNNY     86  73  66 SE10      29.77F HX  93
WORTHINGTON    SUNNY     86  77  74 S9G17     29.78F HX  97
JACKSON        MOSUNNY   86  73  66 S10       29.79F HX  93
TRACY          SUNNY     87  80  77 SE12      29.75F HX 103
SLAYTON        MOSUNNY   87  76  69 S9        29.79R HX  97
$$
MNZ065>067-074>077-082>085-091>093-240000-
   South Central Minnesota

CITY           SKY/WX    TMP DP  RH WIND       PRES   REMARKS
MANKATO        SUNNY     81  72  74 SE15G23   29.80F
NEW ULM        MOSUNNY   82  77  83 SE13      29.77F HX  91
ST JAMES       MOSUNNY   81  72  74 SE13      29.78F
FAIRMONT       CLOUDY    84  75  74 SE15      29.78F HX  92
GLENCOE        CLOUDY    80  75  86 E12G17    29.80F
FARIBAULT      CLOUDY    79  72  78 S6        29.84S
OWATONNA       CLOUDY    79  70  73 S12G17    29.83F
WASECA         MOSUNNY   77  70  78 SE12      29.84F
ALBERT LEA     SUNNY     79  72  78 S16G23    29.82F
$$
MNZ078>079-086>088-094>096-240000-
   Southeast Minnesota

CITY           SKY/WX    TMP DP  RH WIND       PRES   REMARKS
ROCHESTER      MOSUNNY   75  70  84 SE14G25   29.84F
RED WING       CLOUDY    75  70  83 N3        29.84R
STANTON        CLOUDY    79  70  73 S8        29.84R
DODGE CENTER   MOSUNNY   75  72  88 S16       29.84F
WINONA         CLOUDY    75  70  83 SE9       29.83F
AUSTIN         CLOUDY    77  70  78 SE13G20   29.83F
PRESTON        CLOUDY    71  67  87 SE14G22   29.87F
$$
ABBREVIATIONS USED IN REMARKS
   TC - TEMPERATURES IN CELSIUS
  WCI - WIND CHILL INDEX
   HX - HEAT INDEX
  VSB - VISIBILITY
$$




USA.gov is the U.S. government's official web portal to all federal, state and local government web resources and services.